Location: T�bingen+AIT
(48.5342°N, 9.0700°E)
Time: 20:27:38
(UTC+02:00)

BREEZE M DEB (TANK) - Pass Details

Date: 14 September 2017
Orbit: 306 x 16214 km, 49.4° (Epoch: 19 September)

Event Time Altitude Azimuth Distance (km) Brightness Sun altitude
Rises 20:19:49 0° 240° (WSW) 7,129 8.7 -7.6°
Reaches altitude 10° 20:26:29 10° 238° (WSW) 4,285 7.5 -8.7°
Maximum altitude 20:34:41 58° 162° (SSE) 789 2.9 -10.0°
Enters shadow 20:37:14 13° 83° (E) 1,392 3.8 -10.4°
